Location: Home
(42.5358°N, 72.7383°W)
Time: 20:54:57
(UTC-05:00)

Vanguard 2 - Pass Details

Date: 03 December 2021
Orbit: 553 x 2936 km, 32.9° (Epoch: 20 January)

Event Time Altitude Azimuth Distance (km) Brightness Sun altitude
Rises 14:49:22 0° 249° (WSW) 3,128 11.9 12.1°
Reaches altitude 10° 14:51:32 10° 241° (WSW) 2,389 12.0 11.8°
Maximum altitude 14:56:42 38° 174° (S) 1,571 9.7 11.1°
Drops below altitude 10° 15:04:46 10° 110° (ESE) 3,734 10.8 10.0°
Sets 15:09:01 0° 104° (ESE) 5,147 11.4 9.5°
